Location: Cedar Springs
(43.2230°N, 85.5510°W)
Time: 01:51:44
(UTC-05:00)

Cosmos 2278 Rocket - Visible Passes

Search period start: 17 January 2017 00:00
Search period end: 27 January 2017 00:00
Orbit: 840 x 847 km, 71.0° (Epoch: 15 January)

Date Brightness Start Highest point End Pass type
(mag) Time Alt. Az. Time Alt. Az. Time Alt. Az.
17 Jan 3.1 18:10:40 10° N 18:15:31 28° NE 18:20:22 10° ESE visible
17 Jan 3.1 19:54:23 10° NW 19:59:51 48° WSW 20:05:15 10° S visible
18 Jan 3.0 19:39:50 10° NW 19:45:19 50° WSW 19:50:46 10° S visible
19 Jan 3.0 19:25:17 10° NNW 19:30:48 53° WSW 19:36:17 10° S visible
20 Jan 3.0 19:10:44 10° NNW 19:16:17 55° WSW 19:21:47 10° S visible
21 Jan 2.9 18:56:11 10° NNW 19:01:46 57° WSW 19:07:18 10° S visible
22 Jan 2.9 18:41:39 10° NNW 18:47:14 60° WSW 18:52:48 10° S visible
23 Jan 2.8 18:27:07 10° NNW 18:32:43 63° WSW 18:38:18 10° S visible
24 Jan 2.8 18:12:33 10° NNW 18:18:12 65° WSW 18:23:47 10° S visible
25 Jan 4.4 07:21:48 10° SSE 07:26:44 32° ESE 07:31:42 10° NE visible
26 Jan 4.4 07:07:21 10° SSE 07:12:14 31° ESE 07:17:08 10° NE visible
